DW2659 Weather Reports


time (UTC)temp
F
wind
direction
speed
knots
gust
knots
rain 1hr
in
rain 24hr
in
rain mn
in
humidity
%
barometer
mb
20260506051403 70 171 1.7 4.3 0.00 0.00 0.00 51 1011.8
20260506050903 70 225 1.7 4.3 0.00 0.00 0.00 51 1011.8
20260506050404 70 220 1.7 5.2 0.00 0.00 0.00 51 1011.8
20260506044903 70 173 0.9 2.6 0.00 0.00 0.00 51 1011.7
20260506044403 70 143 0.9 1.7 0.00 0.00 0.00 51 1011.7
20260506043403 70 215 1.7 2.6 0.00 0.00 0.00 50 1011.7
20260506042903 70 181 0.9 2.6 0.00 0.00 0.00 50 1011.7
20260506041403 70 217 0.9 2.6 0.00 0.00 0.00 50 1011.9
20260506040403 70 226 1.7 2.6 0.00 0.00 0.00 50 1011.9
20260506035902 70 215 1.7 2.6 0.00 0.00 0.00 49 1011.8
20260506034904 70 172 0.9 2.6 0.00 0.00 0.00 49 1011.8
20260506034402 71 232 1.7 2.6 0.00 0.00 0.00 49 1011.8
20260506033903 71 222 0.9 2.6 0.00 0.00 0.00 49 1011.8
20260506033404 71 234 1.7 2.6 0.00 0.00 0.00 48 1011.8
20260506032903 71 198 1.7 2.6 0.00 0.00 0.00 47 1011.6
20260506032403 71 191 1.7 4.3 0.00 0.00 0.00 47 1011.6
20260506031402 71 189 0.0 1.7 0.00 0.00 0.00 47 1012.0
20260506030903 71 199 0.9 2.6 0.00 0.00 0.00 47 1012.0
20260506030404 71 171 0.0 1.7 0.00 0.00 0.00 47 1012.0
20260506025903 71 119 0.9 2.6 0.00 0.00 0.00 46 1012.0
20260506025402 71 247 1.7 4.3 0.00 0.00 0.00 46 1012.1
20260506024903 71 200 1.7 4.3 0.00 0.00 0.00 46 1012.1
20260506023903 71 172 2.6 5.2 0.00 0.00 0.00 45 1011.9
20260506023403 71 222 1.7 2.6 0.00 0.00 0.00 45 1011.9
20260506022403 72 244 0.9 2.6 0.00 0.00 0.00 45 1011.9
20260506021904 72 235 1.7 4.3 0.00 0.00 0.00 44 1011.8
20260506021403 72 146 0.9 1.7 0.00 0.00 0.00 44 1011.7
20260506020903 72 144 1.7 4.3 0.00 0.00 0.00 44 1011.7
20260506015902 72 186 1.7 4.3 0.00 0.00 0.00 43 1011.6
20260506015403 72 157 1.7 2.6 0.00 0.00 0.00 43 1011.6
20260506014904 72 164 1.7 5.2 0.00 0.00 0.00 43 1011.6
20260506014403 72 218 2.6 5.2 0.00 0.00 0.00 42 1011.4
20260506013903 72 187 1.7 4.3 0.00 0.00 0.00 42 1011.4
20260506013403 73 223 1.7 6.1 0.00 0.00 0.00 42 1011.4
20260506012903 73 180 1.7 2.6 0.00 0.00 0.00 42 1011.5
20260506012402 73 167 0.9 2.6 0.00 0.00 0.00 42 1011.5
20260506010903 73 192 1.7 2.6 0.00 0.00 0.00 41 1011.3
20260506010404 73 193 1.7 5.2 0.00 0.00 0.00 41 1011.4
20260506005903 73 207 1.7 5.2 0.00 0.00 0.00 41 1011.4
20260506005403 73 248 0.9 4.3 0.00 0.00 0.00 41 1011.4
20260506004904 73 217 1.7 4.3 0.00 0.00 0.00 41 1011.4
20260506004403 73 172 1.7 5.2 0.00 0.00 0.00 41 1011.3
20260506002903 73 234 1.7 5.2 0.00 0.00 0.00 41 1011.3
20260506002403 73 219 2.6 4.3 0.00 0.00 0.00 41 1011.2
20260506001904 73 232 1.7 4.3 0.00 0.00 0.00 41 1011.2
20260506001403 73 203 1.7 4.3 0.00 0.00 0.00 41 1011.1
20260506000903 73 234 1.7 5.2 0.00 0.00 0.00 40 1011.1
20260506000404 73 240 1.7 4.3 0.00 0.00 0.00 40 1011.1
20260505235403 74 194 2.6 6.1 0.00 0.00 0.00 40 1011.4
20260505234904 74 207 2.6 5.2 0.00 0.00 0.00 40 1011.4
20260505234403 74 237 2.6 6.1 0.00 0.00 0.00 40 1011.4
20260505232903 74 236 3.5 8.7 0.00 0.00 0.00 38 1011.3
20260505232403 75 223 4.3 7.8 0.00 0.00 0.00 37 1011.3
20260505231904 75 229 4.3 8.7 0.00 0.00 0.00 38 1011.3
20260505231403 75 245 4.3 7.8 0.00 0.00 0.00 38 1011.3
20260505225402 75 242 2.6 7.8 0.00 0.00 0.00 37 1011.3
20260505224904 75 201 4.3 10.4 0.00 0.00 0.00 36 1011.3
20260505224403 75 143 5.2 7.8 0.00 0.00 0.00 36 1011.2
20260505223404 76 152 4.3 7.8 0.00 0.00 0.00 36 1011.3
20260505222902 75 169 2.6 7.0 0.00 0.00 0.00 35 1011.4
20260505222403 76 238 2.6 7.0 0.00 0.00 0.00 36 1011.4
20260505221904 76 201 1.7 6.1 0.00 0.00 0.00 36 1011.4
20260505221403 75 236 2.6 5.2 0.00 0.00 0.00 35 1011.4
20260505220903 75 187 2.6 6.1 0.00 0.00 0.00 36 1011.4
20260505214904 75 209 1.7 4.3 0.00 0.00 0.00 36 1012.0
20260505214403 76 234 1.7 6.1 0.00 0.00 0.00 36 1011.9
20260505213903 76 239 3.5 7.0 0.00 0.00 0.00 34 1011.9
20260505213404 76 207 2.6 5.2 0.00 0.00 0.00 35 1011.9
20260505212903 76 218 2.6 7.0 0.00 0.00 0.00 35 1011.9
20260505212403 76 236 1.7 2.6 0.00 0.00 0.00 34 1011.9
20260505211904 76 246 3.5 6.1 0.00 0.00 0.00 33 1011.9
20260505211403 76 250 2.6 2.6 0.00 0.00 0.00 32 1011.7
20260505210904 76 202 1.7 5.2 0.00 0.00 0.00 30 1011.7
20260505205404 77 226 4.3 10.4 0.00 0.00 0.00 27 1012.0
20260505204903 77 228 4.3 13.0 0.00 0.00 0.00 27 1012.0
20260505204403 78 251 2.6 7.0 0.00 0.00 0.00 27 1012.0
20260505203904 78 249 6.1 12.2 0.00 0.00 0.00 28 1012.0
20260505203403 78 229 2.6 7.8 0.00 0.00 0.00 32 1012.0
20260505202903 79 247 2.6 12.2 0.00 0.00 0.00 32 1012.3
20260505202404 79 119 3.5 12.2 0.00 0.00 0.00 30 1012.3
20260505201903 80 235 3.5 7.8 0.00 0.00 0.00 30 1012.3
20260505201403 79 186 6.1 10.4 0.00 0.00 0.00 30 1012.6
20260505200904 79 247 5.2 10.4 0.00 0.00 0.00 30 1012.6
20260505195903 79 221 4.3 8.7 0.00 0.00 0.00 27 1012.6
20260505195404 79 241 6.1 10.4 0.00 0.00 0.00 26 1012.6
20260505194903 79 233 4.3 12.2 0.00 0.00 0.00 27 1012.6
20260505194404 79 190 4.3 10.4 0.00 0.00 0.00 31 1012.6
20260505193906 79 228 5.2 10.4 0.00 0.00 0.00 30 1012.6
20260505193403 79 170 5.2 13.9 0.00 0.00 0.00 31 1012.6
20260505192904 79 222 5.2 7.8 0.00 0.00 0.00 34 1012.6
20260505192404 78 130 6.1 11.3 0.00 0.00 0.00 36 1012.6
20260505191903 78 224 5.2 10.4 0.00 0.00 0.00 35 1012.6
20260505191404 79 263 6.1 11.3 0.00 0.00 0.00 32 1012.9
20260505190903 79 255 6.1 11.3 0.00 0.00 0.00 33 1012.9
20260505190403 79 166 5.2 10.4 0.00 0.00 0.00 33 1012.9
20260505185904 79 214 5.2 11.3 0.00 0.00 0.00 34 1012.9
20260505184903 77 161 5.2 11.3 0.00 0.00 0.00 38 1013.2
20260505184404 77 266 4.3 10.4 0.00 0.00 0.00 38 1013.4
20260505183904 77 190 5.2 10.4 0.00 0.00 0.00 39 1013.4
20260505183403 77 241 3.5 7.8 0.00 0.00 0.00 40 1013.5
20260505182904 77 229 5.2 10.4 0.00 0.00 0.00 40 1013.5
20260505182403 77 152 5.2 8.7 0.00 0.00 0.00 40 1013.5
20260505181903 76 218 5.2 11.3 0.00 0.00 0.00 39 1013.5
20260505180903 76 229 6.1 11.3 0.00 0.00 0.00 38 1013.5
20260505175904 77 167 6.1 12.2 0.00 0.00 0.00 36 1013.5
20260505175403 77 130 4.3 10.4 0.00 0.00 0.00 37 1013.8
20260505174903 77 160 5.2 10.4 0.00 0.00 0.00 37 1013.8
20260505174404 77 164 7.0 11.3 0.00 0.00 0.00 36 1014.1
20260505173903 77 155 6.1 12.2 0.00 0.00 0.00 38 1014.1
20260505173403 76 134 5.2 10.4 0.00 0.00 0.00 38 1014.1
20260505172904 76 208 4.3 8.7 0.00 0.00 0.00 39 1014.6
20260505172403 76 183 7.8 13.9 0.00 0.00 0.00 38 1014.6
20260505171904 76 220 5.2 10.4 0.00 0.00 0.00 41 1014.6
20260505170904 75 213 4.3 10.4 0.00 0.00 0.00 44 1014.6
20260505165404 74 258 4.3 10.4 0.00 0.00 0.00 43 1014.6
20260505164904 74 263 4.3 6.1 0.00 0.00 0.00 44 1014.6
20260505164404 74 226 1.7 5.2 0.00 0.00 0.00 46 1014.7
20260505163905 74 161 3.5 7.8 0.00 0.00 0.00 46 1014.7
20260505163404 74 258 3.5 6.1 0.00 0.00 0.00 45 1014.7
20260505162903 75 186 2.6 7.8 0.00 0.00 0.00 45 1014.4
20260505162404 75 137 2.6 6.1 0.00 0.00 0.00 45 1014.4
20260505161403 75 185 2.6 10.4 0.00 0.00 0.00 49 1014.6
20260505160404 74 98 2.6 7.8 0.00 0.00 0.00 52 1014.6
20260505152904 72 219 2.6 5.2 0.00 0.00 0.00 49 1015.1
20260505151904 71 239 1.7 4.3 0.00 0.00 0.00 52 1015.1
20260505151403 70 228 2.6 5.2 0.00 0.00 0.00 53 1015.1
20260505150904 69 259 1.7 8.7 0.00 0.00 0.00 53 1015.1
20260505150405 69 256 3.5 7.8 0.00 0.00 0.00 51 1015.1
20260505124904 57 175 1.7 2.6 0.00 0.00 0.00 70 1014.7
20260505123904 56 174 0.9 2.6 0.00 0.00 0.00 74 1014.5
20260505123403 55 142 0.0 0.0 0.00 0.00 0.00 76 1014.5
20260505122905 55 142 0.0 0.0 0.00 0.00 0.00 76 1014.5
20260505122403 54 142 0.0 0.9 0.00 0.00 0.00 76 1014.5
20260505121904 54 142 0.0 0.9 0.00 0.00 0.00 78 1014.5
20260505121405 53 142 0.0 0.0 0.00 0.00 0.00 80 1014.4
20260505120903 53 142 0.0 0.9 0.00 0.00 0.00 80 1014.4
20260505115905 52 142 0.0 0.9 0.00 0.00 0.00 82 1014.2
20260505115403 51 142 0.9 1.7 0.00 0.00 0.00 83 1014.2
20260505114405 50 142 0.0 0.9 0.00 0.00 0.00 84 1014.0
20260505113904 50 128 0.0 0.0 0.00 0.00 0.00 83 1014.0
20260505113404 50 128 0.0 0.9 0.00 0.00 0.00 84 1014.0
20260505112905 50 128 0.0 0.9 0.00 0.00 0.00 84 1014.0
20260505111904 49 128 0.0 0.0 0.00 0.00 0.00 83 1013.5
20260505111405 49 128 0.0 0.0 0.00 0.00 0.00 83 1013.5
20260505110904 49 128 0.0 0.0 0.00 0.00 0.00 83 1013.5
20260505110404 49 128 0.0 0.9 0.00 0.00 0.00 83 1013.5
20260505101904 49 204 0.0 1.7 0.00 0.00 0.00 83 1013.2
20260505101405 49 187 0.0 0.0 0.00 0.00 0.00 83 1013.2
20260505095905 49 187 0.0 0.0 0.00 0.00 0.00 83 1013.3
20260505095404 49 187 0.0 1.7 0.00 0.00 0.00 83 1013.3
20260505094904 49 125 0.0 0.9 0.00 0.00 0.00 84 1013.4
20260505094404 49 125 0.0 0.9 0.00 0.00 0.00 84 1013.4
20260505093904 49 125 0.9 1.7 0.00 0.00 0.00 84 1013.4
20260505091904 49 196 0.0 0.0 0.00 0.00 0.00 83 1013.4
20260505091405 49 196 0.0 0.0 0.00 0.00 0.00 83 1013.4
20260505090904 49 196 0.0 0.0 0.00 0.00 0.00 83 1013.4
20260505090404 49 196 0.0 0.0 0.00 0.00 0.00 83 1013.4
20260505085905 49 196 0.0 0.0 0.00 0.00 0.00 83 1013.1
20260505085403 49 196 0.0 0.0 0.00 0.00 0.00 83 1013.1
20260505084904 50 196 0.0 0.0 0.00 0.00 0.00 82 1013.1
20260505084405 50 196 0.0 0.0 0.00 0.00 0.00 82 1013.5
20260505083904 50 196 0.0 0.0 0.00 0.00 0.00 82 1013.5
20260505083404 50 196 0.0 0.0 0.00 0.00 0.00 82 1013.5
20260505082905 50 196 0.0 0.0 0.00 0.00 0.00 82 1013.5
20260505082404 50 196 0.0 0.0 0.00 0.00 0.00 82 1013.5
20260505081405 50 196 0.0 0.0 0.00 0.00 0.00 82 1013.4
20260505080904 51 196 0.0 0.0 0.00 0.00 0.00 81 1013.4
20260505080404 51 196 0.0 0.0 0.00 0.00 0.00 81 1013.4
20260505075905 51 196 0.0 0.0 0.00 0.00 0.00 81 1013.4
20260505075404 51 196 0.0 0.0 0.00 0.00 0.00 81 1013.4
20260505074904 51 196 0.0 0.0 0.00 0.00 0.00 81 1013.4
20260505074405 51 196 0.0 0.0 0.00 0.00 0.00 81 1013.4
20260505073903 51 196 0.0 0.0 0.00 0.00 0.00 81 1013.4
20260505073404 51 196 0.0 0.0 0.00 0.00 0.00 80 1013.4
20260505072905 52 196 0.0 0.9 0.00 0.00 0.00 80 1013.5
20260505072404 52 196 0.0 0.9 0.00 0.00 0.00 80 1013.5
20260505071903 52 196 0.0 0.0 0.00 0.00 0.00 80 1013.5
20260505070904 52 196 0.0 0.0 0.00 0.00 0.00 79 1013.4
20260505070404 52 196 0.0 0.0 0.00 0.00 0.00 79 1013.4
20260505065905 53 196 0.0 0.0 0.00 0.00 0.00 78 1013.4
20260505065404 53 196 0.0 0.0 0.00 0.00 0.00 78 1013.4
20260505064404 53 196 0.0 0.0 0.00 0.00 0.00 76 1013.4
20260505063904 53 196 0.0 0.0 0.00 0.00 0.00 76 1013.5
20260505063405 54 196 0.0 0.0 0.00 0.00 0.00 76 1013.5
20260505062904 54 196 0.0 0.0 0.00 0.00 0.00 76 1013.6
20260505062404 54 196 0.0 0.0 0.00 0.00 0.00 76 1013.5
20260505061905 54 196 0.0 0.0 0.00 0.00 0.00 75 1013.5
20260505061405 55 196 0.0 0.0 0.00 0.00 0.00 75 1013.5
20260505060904 55 196 0.0 0.0 0.00 0.00 0.00 74 1013.5
20260505060405 55 196 0.0 0.0 0.00 0.00 0.00 74 1013.5
20260505055904 55 196 0.0 0.0 0.00 0.00 0.00 74 1013.5
20260505054905 56 196 0.0 0.0 0.00 0.00 0.00 75 1013.5